www.pogodaiklimat.ru

Погода и климат >> Архив погоды >> Россия >> Якутия >> Хатырык-Хомо


ПОГОДА в Хатырык-Хомо

  • Прогноз погоды в Хатырык-Хомо
  • Монитор погоды в Хатырык-Хомо

АРХИВ ПОГОДЫ в Хатырык-Хомо

Время (UTC), дата Ветер
(напр.,м/с)
 
Видим.   Явления Облачность Т
(С)
Тd
(С)
f
(%)
Тe
(С)
Тes
(С)
Комфортность P
(гПа)
Po
(гПа)
Тmin
(С)
Tmax
(С)
R
(мм)
R24
(мм)
S
(см)
09 12.08 штиль 0 20 км дым 3/3 1000 м
[Cu med, cong]
+23.9 +13.3 51 +26 +28 жарко 1005.9 997.1
12 12.08 штиль 0 50 км 1/1 1000 м
[Sc]
+17.2 +16.0 93 +17 +17 1007.0 998.0 +25.0
15 12.08 штиль 0 50 км 8/0
[Ci fib]
+10.8 +10.0 95 +10 +10 1007.8 998.6
18 12.08 штиль 0 50 км 10/0
[As trans Cs]
+9.5 +8.9 96 +9 +9 1008.1 998.9
21 12.08 штиль 0 50 км 4/0
[Ci fib]
+7.4 +6.7 95 +6 +7 1008.7 999.4
00 13.08 штиль 0 50 км 1/0
[Ci fib]
+16.9 +14.3 85 +17 +23 1008.6 999.6 +7.4
03 13.08 штиль 0 50 км 3/0
[Ci fib]
+22.2 +15.0 64 +26 +37 душно 1008.1 999.3
06 13.08 штиль 0 50 км 4/4 1000 м
[Cu Sc]
+24.9 +13.7 50 +27 +33 жарко 1007.5 998.8
09 13.08 штиль 0 50 км 1/1 1000 м
[Cu med, cong]
+25.8 +12.8 44 +28 +30 жарко 1007.9 998.2
12 13.08 штиль 0 50 км ясно +18.7 +15.1 80 +20 +20 1007.8 998.8 +27.1
15 13.08 штиль 0 50 км ясно +12.0 +11.2 95 +11 +11 1008.6 999.5
18 13.08 штиль 0 50 км 1/0
[Ci fib]
+9.7 +8.9 95 +9 +9 1009.0 999.7
21 13.08 штиль 0 50 км ясно +9.5 +8.7 95 +9 +9 1009.4 1000.1
00 14.08 штиль 0 50 км ясно +16.6 +13.8 84 +16 +23 1009.4 1000.4 +9.5
03 14.08 ЮВ 1 50 км 1/0
[Ci fib]
+24.6 +13.1 49 +27 +37 жарко 1008.7 999.9
06 14.08 ЮВ 1 50 км 8/3 1000 м
[Cu med, cong Ci]
+26.4 +13.8 46 +29 +33 жарко 1007.7 999.0
09 14.08 В 2 50 км 6/0
[Ci fib]
+25.6 +12.9 45 +27 +29 жарко 1007.5 998.7
12 14.08 штиль 0 50 км 4/3 1000 м
[Sc Cs]
+18.5 +14.2 76 +19 +19 1008.3 999.3 +27.8
15 14.08 штиль 0 50 км 3/0
[Ac trans Ci fib]
+13.2 +12.3 94 +13 +13 1009.0 999.9
18 14.08 штиль 0 50 км 4/0
[Cs]
+9.8 +9.0 95 +9 +9 1009.5 1000.2
21 14.08 штиль 0 50 км 10/0
[Cs]
+13.2 +12.1 93 +13 +13 1010.1 1001.0
00 15.08 штиль 0 50 км 10/0
[As trans Cs]
+17.6 +13.0 74 +18 +22 1010.6 1001.6 +9.8
03 15.08 ЮВ 1 50 км 10/0
[Cs]
+23.5 +13.8 54 +26 +34 жарко 1010.3 1001.5
06 15.08 СВ 1 50 км 10/4
[Cu Sc Cs]
+25.3 +13.2 47 +27 +31 жарко 1009.4 1000.7
09 15.08 штиль 0 50 км {ливн. осадки} 8/4 600 м
[Cb cap Ac trans Ci fib]
+18.1 +17.4 96 +18 +19 1009.9 1000.9
12 15.08 СВ 2 20 км дым {ливн. осадки} 8/3 1000 м
[Sc Ac As Cs]
+22.1 +14.9 64 +26 +26 душно 1010.2 1001.4 +28.4 3
15 15.08 штиль 0 10 км дым 10/0
[Ac As]
+19.4 +15.2 77 +21 +21 комфорт 1011.0 1002.0
18 15.08 штиль 0 20 км слаб. ливневой дождь 10/10 600 м
[Cb cap]
+16.6 +16.6 100 +16 +16 1012.6 1003.6
21 15.08 штиль 0 50 км {ливн. осадки} 10/10 600 м
[Sc diur, vesp]
+15.8 +14.8 94 +16 +16 1013.4 1004.4
00 16.08 СВ 1 50 км {ливн. осадки} 10/8 600 м
[Cb cap Ac As]
+15.7 +13.9 89 +16 +17 1013.9 1004.8 +15.7 2
03 16.08 СВ 1 50 км 10/10 600 м
[Cb cap]
+17.4 +15.4 88 +18 +18 1013.9 1004.9
06 16.08 СВ 2 20 км дым 8/4 1000 м
[Sc Ac trans Ci fib]
+18.8 +16.0 84 +20 +23 1013.0 1004.0
09 16.08 СВ 2 20 км слаб. ливневой дождь 10/10 600 м
[Cb cap]
+19.5 +18.5 94 +23 +23 комфорт 1015.0 1005.0
12 16.08 В 2 50 км {ливн. осадки} 10/10 600 м
[Cb cap]
+15.3 +14.4 94 +15 +15 1014.9 1005.7 +19.6 8
15 16.08 ЮВ 2 50 км 10/10 600 м
[Cb cap]
+15.0 +13.4 90 +15 +15 1015.2 1006.0
18 16.08 штиль 0 50 км 10/10 1000 м
[Sc]
+13.3 +12.4 94 +13 +13 1015.1 1005.9
21 16.08 В 1 50 км 9/0 600 м
[Ac trans]
+14.8 +12.6 87 +15 +15 1015.7 1005.6
00 17.08 ЮВ 1 50 км 4/3 1000 м
[Sc Cs]
+17.7 +14.6 82 +19 +22 1014.9 1005.9 +13.3
03 17.08 ЮВ 1 50 км 8/0
[Ac trans Cs]
+21.3 +15.4 69 +24 +30 комфорт 1014.3 1005.4
06 17.08 В 1 50 км 8/8 600 м
[Cb cap]
+23.8 +15.9 61 +27 +29 жарко 1013.6 1004.8
09 17.08 В 2 50 км 6/3 600 м
[Cb cap Ac trans Ci fib]
+23.2 +16.3 65 +28 +29 душно 1013.2 1004.4
12 17.08 В 2 50 км 9/9 600 м
[Cb cap]
+20.4 +15.5 73 +24 +24 комфорт 1014.2 1005.2 +25.1
15 17.08 В 2 50 км 10/6 600 м
[Cb cap Ac As]
+19.1 +16.6 85 +21 +21 комфорт 1014.0 1005.0
18 17.08 ЮВ 2 50 км 10/3 1000 м
[Sc Ac As Cs]
+15.2 +12.4 83 +15 +15 1014.7 1015.5
21 17.08 штиль 0 50 км 10/0
[Ac As Cs]
+14.8 +13.6 93 +14 +15 1015.4 1007.2
00 18.08 штиль 0 50 км 10/0
[Ac As]
+15.2 +12.9 86 +15 +17 1007.1 1007.9 +14.8
03 18.08 штиль 0 50 км 10/0
[Ac As]
+17.2 +12.7 75 +17 +21 1016.0 1007.0
06 18.08 С 2 50 км 10/6 600 м
[Cb cap Ac As]
+18.7 +13.0 69 +20 +21 1013.3 1004.3
09 18.08 В 3 50 км 10/8 600 м
[Cb cap Ac As]
+19.9 +12.0 60 +22 +22 комфорт 1011.8 1002.8
12 18.08 ЮВ 2 20 км слаб. ливневой дождь 10/10 600 м
[Cb cap]
+13.6 +13.6 100 +13 +13 1013.0 1003.9 +20.7 0.9
15 18.08 ЮВ 3 20 км слаб. ливневой дождь 10/10 600 м
[Sc]
+10.6 +10.6 100 +8 +8 1013.0 1003.7
18 18.08 ЮВ 4 50 км {ливн. осадки} 10/10 600 м
[Cb cap]
+10.3 +9.7 96 +8 +8 1012.4 1003.1
21 18.08 ЮВ 4 50 км 10/10 600 м
[Cb cap]
+10.6 +9.8 95 +8 +8 1012.6 1003.3
00 19.08 В 3 50 км 10/10 600 м
[Cb cap]
+13.3 +11.8 91 +12 +12 1012.5 1003.4 +10.3
03 19.08 В 4 50 км {ливн. осадки} 10/10 600 м
[Cb cap]
+14.0 +12.7 92 +12 +12 1012.7 1003.6

 

Местоположение метеостанции Хатырык-Хомо (Якутия, Россия): широта 63.95 долгота 124.80 высота над уровнем моря 77 м.

В архиве по умолчанию представлена погода в Хатырык-Хомо за последнюю неделю. Архивные данные за месяц целиком и за предыдущие месяцы, начиная с января 2011 года, Вы можете получить, выбрав интересующий диапазон дат из раскрывающегося списка и нажав кнопку "Ввод!".


*Определитесь, кто Вы:
робот инопланетянин человек

Внимание! Время в таблицах - всемирное. Для получения местного времени необходимо прибавить поправку, которая равна 9 ч.

Смотрите также архив погоды в соседних городах и на ближайших метеорологических станциях:

Погода в Сого-Хае (Якутия, Россия) (86 км)
Погода в Сангаре (Якутия, Россия) (127 км)
Погода в Бестяхской Звероферме (Якутия, Россия) (154 км)
Погода в Вилюйске (Якутия, Россия) (158 км)
Погода в Бердигестяхе (Якутия, Россия) (217 км)
Погода в Тонгулахе (Якутия, Россия) (226 км)
Погода в Батамае (Якутия, Россия) (231 км)
Погода в Верхневилюйске (Якутия, Россия) (233 км)
Погода в Сеген-Кюеле (Якутия, Россия) (268 км)
Погода в Намцах (Якутия, Россия) (276 км)

Пояснения к столбцам:

Ветер - указаны скорость ветра в м/с - средняя за 10 мин, порывы в срок и между сроками (в фигурных скобках) и направление, откуда дует ветер: С - северный, СВ - северо-восточный, В - восточный, ЮВ - юго-восточный, Ю - южный, ЮЗ - юго-западный, З - западный, СЗ - северо-западный.
Видимость - горизонтальная дальность видимости в метрах или километрах. При видимости от 1 до 10 км при отсутствии осадков обычно наблюдается дымка, при ухудшении видимости до 1 км и менее - туман. В сухую погоду видимость может ухудшаться дымом, пылью или мглою.
Явления - указаны атмосферные явления, наблюдавшиеся в срок или в последний час перед сроком; фигурными скобками обозначены явления, наблюдавшиеся между сроками (за 1-3 часа до срока); квадратными скобками обозначены град или гололедные отложения с указанием их диаметра в мм.
Облачность - указаны через наклонную черту общая и нижняя облачность в баллах и высота нижней границы облаков в метрах; квадратными скобками обозначены формы облаков: Ci - перистые, Cs - перисто-слоистые, Cc - перисто-кучевые, Ac - высококучевые, As - высокослоистые, Sc - слоисто-кучевые, Ns - слоисто-дождевые, Cu - кучевые, Cb - кучево-дождевые. Подробнее классификацию облаков см. в Атласе облаков (PDF).
T - Температура воздуха - температура, измеренная на высоте 2 м над землей.
Td - Температура точки росы - температура, при понижении до которой содержащийся в воздухе водяной пар достигнет насыщения.
f - Относительная влажность воздуха - влажноcть воздуха, измеренная на высоте 2 м над землей.
Te - Эффективная температура - температура, которую ощущает одетый по сезону человек в тени. Характеристика душности погоды. При расчете учитывается влияние влажности воздуха и скорости ветра на теплоощущения человека.
Tes - Эффективная температура на солнце - температура, которую ощущает человек, с поправкой на солнечный нагрев. Характеристика знойности погоды. Зависит от высоты солнца над горизонтом, облачности и скорости ветра. Ночью, в пасмурную погоду, а также при ветре 12 м/с и более поправка равна нулю.
P - Атмосферное давление - приведенное к уровню моря атмосферное давление.
Po - Атмосферное давление - измеренное на уровне метеостанции атмосферное давление.
Tmin - Минимальная температура - минимум температуры воздуха на высоте 2 м над землей.
Tmax - Максимальная температура - максимум температуры воздуха на высоте 2 м над землей.
R - Количество осадков - Количество выпавших осадков за период времени, мм. При наведении курсора мыши на число - период времени, за который выпало указанное количество осадков.
R24 - Количество осадков - Количество выпавших осадков за 24 часа, мм.
S - Снежный покров - Высота снежного покрова, см. При наведении курсора мыши на число - состояние снежного покрова и степень покрытия местности в баллах.